Total_Precipitation_Accumulation
2.68 2.85 2.71 2.50 2.52 2.62 3.10 3.48 3.65 3.25 2.96 2.76 2.54 2.17 2.13 2.17 2.30 2.03 1.95 1.83 1.58 1.54 1.50 1.44 1.44 1.53 1.70 1.81 1.90 2.03 2.15 2.29 2.54 2.76 2.95 3.15 3.28 3.37
2.78 2.92 2.90 2.66 2.68 2.71 3.05 3.40 3.62 3.71 3.22 2.82 2.76 2.42 2.24 2.05 2.27 2.07 1.93 1.88 1.62 1.51 1.48 1.39 1.29 1.28 1.31 1.38 1.45 1.52 1.61 1.74 1.90 2.06 2.22 2.37 2.49 2.66
2.46 2.60 2.74 2.87 2.85 2.87 3.09 3.27 3.52 3.79 3.36 3.04 3.13 2.95 2.65 2.39 2.25 2.18 1.97 1.82 1.66 1.57 1.41 1.37 1.29 1.22 1.24 1.28 1.30 1.37 1.44 1.52 1.64 1.78 1.91 1.98 1.98 2.08
2.47 2.61 2.52 2.65 2.70 2.72 2.93 3.18 3.44 3.70 3.53 3.39 3.52 3.44 3.15 2.79 2.62 2.47 2.11 1.92 1.79 1.75 1.52 1.38 1.32 1.27 1.21 1.26 1.28 1.28 1.31 1.34 1.40 1.50 1.64 1.77 1.85 1.89
2.28 2.31 2.23 2.38 2.40 2.57 2.68 2.85 3.10 3.37 3.47 3.37 3.45 3.52 3.26 3.03 2.87 2.51 2.27 2.24 1.89 1.90 1.84 1.56 1.37 1.31 1.30 1.28 1.27 1.30 1.30 1.29 1.30 1.37 1.51 1.64 1.77 1.88
1.94 1.92 1.89 1.98 2.13 2.41 2.51 2.60 2.80 3.05 3.17 3.19 3.30 3.36 3.24 3.17 3.14 2.79 2.59 2.46 2.17 1.83 1.87 1.67 1.56 1.46 1.37 1.30 1.29 1.33 1.40 1.40 1.40 1.44 1.50 1.58 1.65 1.75
1.76 1.61 1.51 1.60 1.75 1.94 1.90 2.17 2.41 2.61 2.74 2.89 3.07 3.29 3.15 3.19 3.04 2.92 2.73 2.64 2.52 2.19 2.12 1.82 1.65 1.49 1.35 1.29 1.27 1.32 1.45 1.54 1.56 1.60 1.66 1.72 1.79 1.85
1.68 1.55 1.41 1.42 1.48 1.57 1.62 1.73 1.92 2.13 2.33 2.62 2.82 3.00 2.87 2.86 3.03 3.02 2.94 2.77 2.66 2.51 2.58 2.41 2.12 1.94 1.63 1.33 1.27 1.28 1.36 1.54 1.64 1.67 1.74 1.82 1.91 2.00
1.69 1.71 1.42 1.18 1.35 1.35 1.44 1.46 1.53 1.68 1.92 2.26 2.44 2.50 2.68 2.73 3.04 3.09 3.21 3.09 2.92 2.81 2.94 2.87 2.69 2.51 1.86 1.64 1.59 1.34 1.25 1.28 1.41 1.53 1.61 1.74 1.83 1.89
1.61 1.58 1.55 1.47 1.39 1.39 1.43 1.43 1.30 1.37 1.55 1.59 1.78 2.08 2.59 2.91 2.95 3.00 3.28 3.25 3.04 2.93 2.98 3.04 2.81 2.70 2.19 1.77 1.59 1.29 1.17 1.15 1.21 1.32 1.46 1.59 1.76 1.89
1.55 1.50 1.46 1.46 1.51 1.39 1.44 1.43 1.33 1.29 1.35 1.45 1.56 1.79 2.11 2.46 2.68 2.76 2.87 3.02 3.01 2.95 3.00 3.11 3.00 2.91 2.87 2.50 1.91 1.56 1.24 1.14 1.16 1.22 1.28 1.37 1.53 1.73
1.52 1.43 1.32 1.25 1.32 1.29 1.39 1.48 1.35 1.30 1.38 1.39 1.38 1.48 1.64 1.85 1.98 1.97 2.14 2.35 2.47 2.63 2.59 2.84 3.08 3.18 3.38 3.25 2.66 2.06 1.67 1.44 1.28 1.21 1.25 1.33 1.46 1.38
1.45 1.33 1.26 1.22 1.17 1.16 1.21 1.29 1.35 1.44 1.50 1.50 1.52 1.51 1.65 1.80 1.87 1.86 1.99 2.13 2.15 2.10 2.09 2.28 2.56 2.83 3.09 3.23 3.03 2.58 2.17 1.90 1.61 1.42 1.34 1.36 1.41 1.39
1.52 1.47 1.44 1.30 1.18 1.14 1.10 1.15 1.28 1.30 1.39 1.47 1.48 1.48 1.55 1.70 1.84 1.93 2.04 2.14 2.13 2.05 2.07 2.20 2.30 2.33 2.31 2.34 2.42 2.31 2.15 2.03 1.95 1.84 1.67 1.66 1.60 1.62
1.54 1.54 1.41 1.28 1.20 1.18 1.21 1.28 1.28 1.26 1.40 1.53 1.52 1.50 1.56 1.67 1.81 1.92 1.98 2.06 2.10 2.01 1.89 1.90 1.96 2.11 2.24 2.09 1.93 1.87 1.90 1.93 2.03 2.18 2.20 2.04 1.88 1.82
1.61 1.60 1.46 1.33 1.23 1.19 1.19 1.18 1.18 1.26 1.37 1.40 1.47 1.58 1.61 1.66 1.72 1.77 1.87 1.90 1.90 1.84 1.82 1.80 1.82 1.92 1.99 2.03 1.93 1.75 1.75 1.87 1.93 2.10 2.33 2.39 2.29 2.14
2.01 1.93 1.84 1.69 1.52 1.45 1.39 1.38 1.41 1.44 1.43 1.48 1.57 1.60 1.54 1.52 1.59 1.67 1.83 1.87 1.74 1.61 1.68 1.79 1.89 1.92 1.84 1.87 1.86 1.72 1.69 1.67 1.73 1.86 2.03 2.07 2.03 2.02
2.04 1.95 2.01 1.99 1.86 1.79 1.71 1.67 1.65 1.62 1.58 1.59 1.60 1.59 1.55 1.51 1.59 1.68 1.84 1.90 1.81 1.64 1.63 1.74 1.88 2.00 2.02 1.93 1.71 1.64 1.63 1.62 1.65 1.80 1.88 1.86 1.72 1.56
1.99 2.00 2.05 2.06 2.00 1.96 1.95 1.84 1.76 1.74 1.79 1.75 1.70 1.67 1.66 1.65 1.73 1.78 1.82 1.84 1.81 1.69 1.63 1.74 1.84 1.90 1.92 1.83 1.68 1.53 1.57 1.60 1.70 1.73 1.73 1.69 1.60 1.48
1.86 2.02 2.05 2.03 1.99 1.94 1.90 1.86 1.80 1.84 1.88 1.79 1.70 1.67 1.68 1.70 1.76 1.78 1.81 1.81 1.79 1.78 1.77 1.73 1.75 1.82 1.82 1.80 1.75 1.62 1.44 1.48 1.59 1.65 1.62 1.61 1.57 1.53
1.95 2.04 2.03 1.97 1.92 1.91 1.90 1.87 1.81 1.82 1.86 1.87 1.78 1.76 1.78 1.81 1.81 1.82 1.88 1.90 1.80 1.72 1.67 1.54 1.60 1.87 2.02 2.11 1.92 1.71 1.73 1.70 1.68 1.65 1.65 1.66 1.65 1.57
1.80 1.89 1.89 1.83 1.81 1.84 1.83 1.82 1.83 1.86 1.91 1.93 1.82 1.74 1.76 1.82 1.77 1.80 1.85 1.84 1.75 1.68 1.66 1.65 1.81 1.95 2.05 2.16 2.02 1.93 2.04 2.04 2.01 1.95 1.87 1.76 1.63 1.53
1.82 1.78 1.72 1.67 1.68 1.74 1.78 1.86 1.89 1.92 1.92 1.89 1.85 1.77 1.75 1.80 1.78 1.82 1.83 1.84 1.86 1.86 1.90 1.94 2.02 2.05 1.98 1.97 2.04 2.02 2.04 2.12 2.12 2.06 1.93 1.83 1.58 1.37